Regional Weather Roundup
Issued by NWS

Home | Current Version | Previous Version | Text Only | Print | Product List | Glossary On
Versions: 1 2 3 4 5 6 7 8 9 10 11 12 13 14 15 16 17 18 19 20 21 22 23 24 25 26 27 28 29 30 31 32 33 34 35 36 37 38 39 40 41 42 43 44 45 46 47 48 49 50
000
ASUS46 KPQR 260910
RWROR

OREGON REGIONAL WEATHER ROUNDUP
NATIONAL WEATHER SERVICE PORTLAND OR
200 AM PDT SAT JUL 26 2014

NOTE: "FAIR" INDICATES FEW OR NO CLOUDS BELOW 12,000 FEET WITH
NO SIGNIFICANT WEATHER AND/OR OBSTRUCTIONS TO VISIBILITY.

ORZ001>013-261000-
NORTHWEST OREGON


CITY           SKY/WX    TMP DP  RH WIND       PRES   REMARKS
ASTORIA        CLEAR     53  51  93 SE3       30.13R
NEWPORT        CLEAR     50  48  93 CALM      30.14S
PORTLAND       CLEAR     62  54  74 N5        30.10S
VANCOUVER WA   CLEAR     61  53  75 CALM      30.09S
SCAPPOOSE      CLEAR     60  53  77 N6        30.09S
HILLSBORO      CLEAR     56  51  84 W3        30.09S
AURORA         CLEAR     58  53  84 N7        30.10S
MCMINNVILLE    CLEAR     56  53  90 W6        30.10S
SALEM          CLEAR     60  54  80 NW6       30.08S
CORVALLIS      CLEAR     57  52  82 NW8       30.10R
EUGENE         CLEAR     55  52  89 NW7       30.08S
$$

ORZ021-028-261000-
SOUTHWEST OREGON


CITY           SKY/WX    TMP DP  RH WIND       PRES   REMARKS
NORTH BEND     CLEAR     55  55 100 CALM      30.11S
BROOKINGS      SUNNY     54  52  93 NW3       30.03F
ROSEBURG       CLEAR     62  53  72 N3        30.06S
SEXTON SUMMIT  CLEAR     56  46  69 N5        30.13F
MEDFORD        CLEAR     64  45  49 CALM      30.05R
$$

ORZ009-041-261000-
COLUMBIA GORGE


CITY           SKY/WX    TMP DP  RH WIND       PRES   REMARKS
TROUTDALE      CLEAR     58  54  86 CALM      30.08S
THE DALLES     CLEAR     66  51  58 VRB3      30.03R
$$

ORZ029>031-042>050-061>064-261000-
EASTERN OREGON


CITY           SKY/WX    TMP DP  RH WIND       PRES   REMARKS
REDMOND        CLEAR     53  45  74 CALM      30.12R
BEND           SUNNY     55  46  71 CALM      30.15S
KLAMATH FALLS  CLEAR     55  45  68 CALM      30.13S
LAKEVIEW       CLEAR     61  32  33 N13       30.18S
HERMISTON      CLEAR     50  42  74 SE5       30.01R
PENDLETON      CLEAR     54  41  61 SE8       30.03S
JOHN DAY       SUNNY     56  37  48 CALM      30.14S
MEACHAM        CLEAR     41  39  93 CALM      30.14F
LA GRANDE      CLEAR     54  34  47 CALM      30.10S
BAKER CITY     CLEAR     53  41  63 S5        30.13S
BURNS          CLEAR     54  31  41 W8        30.14R
ROME             N/A     58  28  32 NE6       30.10S
ONTARIO        CLEAR     63  42  46 CALM      30.04R
$$



USA.gov is the U.S. government's official web portal to all federal, state and local government web resources and services.